OCN5AN EDDF-GMMX

Flight info

Callsign OCN5AN
Flight time 3h 21m
Altitude 35000
Route ANEKI2L ANEKI Y163 HERBI Y164 MOPAN DCT LUTIX DCT BENOT DCT NEMOS DCT NINTU/N0438F370 DCT MEBAK DCT REPSI DCT LERGA DCT MINSO DCT NARAK DCT AGN DCT MAQAB DCT TIVLI DCT ELSAP DCT ZAR DCT EXEMU DCT PISUS DCT EDIMU DCT ADUXO DCT NUSGO DCT OBIBO DCT NASOS DCT ANZAN DCT BLN DCT MGA DCT PIMOS DCT GALTO UN869 MABAP
Aircraft A320/M-SDE2E3FGIJ1LORWXYZ/HB1

Departure

Time 2026-04-16 10:32
Airport Frankfurt Main Airport (EDDF)

Arrival

Time 2026-04-16 13:53
Airport Marrakesh Menara Airport (GMMX)
Time Latitude Longitude Altitude Speed Heading
2026-04-16 10:03 50.04577 8.56632 364 ft 0 kts 114°
2026-04-16 10:18 50.04579 8.56625 363 ft 2 kts 114°
2026-04-16 10:18 50.04587 8.56598 362 ft 3 kts 115°
2026-04-16 10:19 50.04596 8.56570 362 ft 3 kts 117°
2026-04-16 10:19 50.04605 8.56542 363 ft 3 kts 122°
2026-04-16 10:19 50.04617 8.56517 359 ft 3 kts 136°
2026-04-16 10:19 50.04631 8.56501 362 ft 3 kts 180°
2026-04-16 10:20 50.04638 8.56502 360 ft 1 kts 204°
2026-04-16 10:20 50.04623 8.56491 360 ft 3 kts 204°
2026-04-16 10:20 50.04605 8.56478 357 ft 3 kts 204°
2026-04-16 10:20 50.04587 8.56465 360 ft 3 kts 205°
2026-04-16 10:21 50.04578 8.56459 356 ft 0 kts 205°
2026-04-16 10:23 50.04577 8.56458 356 ft 0 kts 205°
2026-04-16 10:24 50.04574 8.56456 356 ft 2 kts 205°
2026-04-16 10:24 50.04551 8.56440 359 ft 5 kts 204°
2026-04-16 10:24 50.04520 8.56399 360 ft 6 kts 238°
2026-04-16 10:24 50.04507 8.56345 359 ft 5 kts 250°
2026-04-16 10:25 50.04495 8.56294 359 ft 6 kts 250°
2026-04-16 10:25 50.04478 8.56225 361 ft 8 kts 250°
2026-04-16 10:25 50.04455 8.56126 364 ft 10 kts 250°
2026-04-16 10:25 50.04428 8.56044 358 ft 8 kts 225°
2026-04-16 10:26 50.04360 8.56045 362 ft 11 kts 159°
2026-04-16 10:26 50.04283 8.56066 354 ft 13 kts 204°
2026-04-16 10:26 50.04240 8.55942 361 ft 13 kts 249°
2026-04-16 10:26 50.04205 8.55797 360 ft 15 kts 250°
2026-04-16 10:27 50.04169 8.55646 352 ft 15 kts 249°
2026-04-16 10:27 50.04131 8.55484 355 ft 16 kts 250°
2026-04-16 10:27 50.04090 8.55315 359 ft 17 kts 249°
2026-04-16 10:27 50.04050 8.55147 360 ft 17 kts 249°
2026-04-16 10:28 50.04007 8.54970 361 ft 18 kts 250°
2026-04-16 10:28 50.03960 8.54771 357 ft 21 kts 249°
2026-04-16 10:28 50.03906 8.54549 356 ft 23 kts 250°
2026-04-16 10:28 50.03835 8.54316 351 ft 23 kts 232°
2026-04-16 10:29 50.03775 8.54120 349 ft 21 kts 249°
2026-04-16 10:29 50.03723 8.53901 343 ft 22 kts 250°
2026-04-16 10:29 50.03666 8.53665 344 ft 24 kts 249°
2026-04-16 10:29 50.03603 8.53415 336 ft 26 kts 250°
2026-04-16 10:30 50.03541 8.53152 337 ft 26 kts 250°
2026-04-16 10:30 50.03486 8.52929 333 ft 22 kts 249°
2026-04-16 10:30 50.03434 8.52735 332 ft 16 kts 247°
2026-04-16 10:30 50.03369 8.52602 334 ft 16 kts 201°
2026-04-16 10:31 50.03250 8.52594 333 ft 20 kts 180°
2026-04-16 10:31 50.02908 8.52599 334 ft 83 kts 179°
2026-04-16 10:31 50.02136 8.52607 335 ft 136 kts 179°
2026-04-16 10:31 50.01051 8.52626 465 ft 167 kts 179°
2026-04-16 10:32 49.99876 8.52674 1089 ft 170 kts 178°
2026-04-16 10:32 49.98689 8.52753 1783 ft 175 kts 180°
2026-04-16 10:32 49.97404 8.52838 2084 ft 196 kts 179°
2026-04-16 10:32 49.95964 8.52931 2357 ft 219 kts 180°
2026-04-16 10:33 49.94400 8.53035 2979 ft 228 kts 179°
2026-04-16 10:33 49.92807 8.53146 3797 ft 230 kts 179°
2026-04-16 10:33 49.91200 8.53260 4635 ft 232 kts 179°
2026-04-16 10:33 49.89582 8.53375 5481 ft 234 kts 179°
2026-04-16 10:34 49.87919 8.53490 6273 ft 238 kts 180°
2026-04-16 10:34 49.86272 8.53600 7016 ft 242 kts 180°
2026-04-16 10:34 49.84576 8.53710 7707 ft 246 kts 180°
2026-04-16 10:34 49.82852 8.53822 8424 ft 250 kts 180°
2026-04-16 10:35 49.81100 8.53940 9157 ft 254 kts 179°
2026-04-16 10:35 49.79323 8.54060 9905 ft 258 kts 179°
2026-04-16 10:35 49.77511 8.54061 10555 ft 265 kts 187°
2026-04-16 10:35 49.75598 8.53811 10814 ft 288 kts 187°
2026-04-16 10:36 49.73518 8.53529 11024 ft 311 kts 187°
2026-04-16 10:36 49.71280 8.53225 11192 ft 335 kts 187°
2026-04-16 10:36 49.68911 8.52907 11241 ft 345 kts 187°
2026-04-16 10:36 49.66507 8.52590 11244 ft 347 kts 186°
2026-04-16 10:37 49.64099 8.52278 11242 ft 348 kts 186°
2026-04-16 10:37 49.61673 8.51962 11360 ft 352 kts 186°
2026-04-16 10:37 49.59226 8.51641 12127 ft 354 kts 187°
2026-04-16 10:37 49.56763 8.51318 12862 ft 357 kts 187°
2026-04-16 10:38 49.54280 8.50990 13557 ft 360 kts 187°
2026-04-16 10:38 49.51778 8.50656 14231 ft 363 kts 187°
2026-04-16 10:38 49.49251 8.50320 14848 ft 366 kts 187°
2026-04-16 10:38 49.46706 8.49989 15460 ft 369 kts 188°
2026-04-16 10:39 49.44141 8.49659 16074 ft 371 kts 188°
2026-04-16 10:39 49.41555 8.49324 16664 ft 374 kts 188°
2026-04-16 10:39 49.38950 8.48985 17253 ft 377 kts 188°
2026-04-16 10:39 49.36323 8.48642 17838 ft 380 kts 188°
2026-04-16 10:40 49.33674 8.48296 18417 ft 383 kts 188°
2026-04-16 10:40 49.31007 8.47949 18918 ft 386 kts 188°
2026-04-16 10:40 49.28317 8.47597 19397 ft 389 kts 188°
2026-04-16 10:40 49.25609 8.47245 19875 ft 392 kts 188°
2026-04-16 10:41 49.22885 8.46891 20349 ft 395 kts 188°
2026-04-16 10:41 49.20136 8.46537 20793 ft 398 kts 188°
2026-04-16 10:41 49.17364 8.46184 21244 ft 401 kts 188°
2026-04-16 10:41 49.14572 8.45829 21698 ft 404 kts 189°
2026-04-16 10:42 49.11761 8.45468 22143 ft 407 kts 189°
2026-04-16 10:42 49.08930 8.45098 22582 ft 410 kts 189°
2026-04-16 10:42 49.06093 8.44631 23006 ft 410 kts 194°
2026-04-16 10:42 49.03311 8.43697 23431 ft 411 kts 198°
2026-04-16 10:43 49.00519 8.42713 23857 ft 413 kts 198°
2026-04-16 10:43 48.97709 8.41730 24194 ft 416 kts 197°
2026-04-16 10:43 48.94877 8.40743 24541 ft 419 kts 197°
2026-04-16 10:43 48.92029 8.39754 24899 ft 421 kts 197°
2026-04-16 10:44 48.89163 8.38758 25259 ft 423 kts 197°
2026-04-16 10:44 48.86284 8.37758 25597 ft 426 kts 197°
2026-04-16 10:44 48.83384 8.36755 25933 ft 428 kts 197°
2026-04-16 10:44 48.81458 8.36092 26156 ft 430 kts 197°
2026-04-16 10:45 48.78533 8.35085 26493 ft 432 kts 197°
2026-04-16 10:45 48.75596 8.34051 26801 ft 435 kts 198°
2026-04-16 10:45 48.72649 8.32979 27112 ft 437 kts 198°
2026-04-16 10:45 48.69690 8.31882 27436 ft 439 kts 198°
2026-04-16 10:46 48.66714 8.30773 27741 ft 442 kts 198°
2026-04-16 10:46 48.63721 8.29665 28061 ft 444 kts 198°
2026-04-16 10:46 48.60711 8.28561 28377 ft 446 kts 198°
2026-04-16 10:46 48.57688 8.27461 28671 ft 448 kts 198°
2026-04-16 10:47 48.54631 8.26355 28967 ft 450 kts 198°
2026-04-16 10:47 48.51578 8.25254 29253 ft 453 kts 198°
2026-04-16 10:47 48.48506 8.24148 29524 ft 455 kts 198°
2026-04-16 10:47 48.45425 8.23033 29807 ft 456 kts 198°
2026-04-16 10:48 48.42331 8.21905 30085 ft 459 kts 198°
2026-04-16 10:48 48.39225 8.20766 30346 ft 461 kts 198°
2026-04-16 10:48 48.36105 8.19619 30582 ft 462 kts 198°
2026-04-16 10:48 48.32975 8.18471 30777 ft 464 kts 198°
2026-04-16 10:49 48.29841 8.17331 31093 ft 463 kts 198°
2026-04-16 10:49 48.26709 8.16194 31413 ft 462 kts 199°
2026-04-16 10:49 48.23688 8.14690 31709 ft 457 kts 207°
2026-04-16 10:49 48.20823 8.12641 32016 ft 454 kts 211°
2026-04-16 10:50 48.17991 8.10536 32325 ft 454 kts 211°
2026-04-16 10:50 48.15161 8.08439 32622 ft 454 kts 210°
2026-04-16 10:50 48.12329 8.06345 32914 ft 454 kts 210°
2026-04-16 10:50 48.09496 8.04254 33212 ft 454 kts 210°
2026-04-16 10:51 48.06660 8.02164 33508 ft 454 kts 210°
2026-04-16 10:51 48.03829 8.00081 33810 ft 454 kts 210°
2026-04-16 10:51 48.00999 7.98000 34120 ft 453 kts 210°
2026-04-16 10:51 47.98172 7.95924 34397 ft 453 kts 210°
2026-04-16 10:52 47.95346 7.93850 34660 ft 452 kts 210°
2026-04-16 10:52 47.92522 7.91785 34892 ft 452 kts 210°
2026-04-16 10:52 47.89701 7.89721 35125 ft 452 kts 210°
2026-04-16 10:52 47.86876 7.87659 35248 ft 451 kts 210°
2026-04-16 10:53 47.81404 7.83682 35266 ft 450 kts 210°
2026-04-16 10:53 47.75729 7.79558 35269 ft 449 kts 210°
2026-04-16 10:54 47.70110 7.75483 35270 ft 450 kts 210°
2026-04-16 10:54 47.64485 7.71403 35273 ft 450 kts 210°
2026-04-16 10:55 47.58863 7.67330 35273 ft 450 kts 210°
2026-04-16 10:55 47.53236 7.63272 35261 ft 450 kts 210°
2026-04-16 10:56 47.47601 7.59236 35256 ft 450 kts 210°
2026-04-16 10:56 47.41967 7.55193 35257 ft 450 kts 210°
2026-04-16 10:57 47.36328 7.51152 35256 ft 451 kts 210°
2026-04-16 10:57 47.30683 7.47120 35243 ft 451 kts 210°
2026-04-16 10:58 47.25026 7.43102 35246 ft 452 kts 210°
2026-04-16 10:58 47.19379 7.39012 35247 ft 451 kts 214°
2026-04-16 10:59 47.14525 7.33299 35243 ft 441 kts 232°
2026-04-16 10:59 47.10699 7.26313 35233 ft 440 kts 236°
2026-04-16 11:00 47.06877 7.19291 35237 ft 441 kts 236°
2026-04-16 11:00 47.03039 7.12281 35252 ft 441 kts 236°
2026-04-16 11:01 46.99206 7.05261 35252 ft 441 kts 236°
2026-04-16 11:01 46.95370 6.98244 35246 ft 441 kts 235°
2026-04-16 11:02 46.91515 6.91242 35238 ft 442 kts 236°
2026-04-16 11:02 46.87651 6.84248 35248 ft 442 kts 236°
2026-04-16 11:03 46.83784 6.77257 35254 ft 442 kts 236°
2026-04-16 11:04 46.77975 6.66790 35308 ft 443 kts 236°
2026-04-16 11:04 46.74035 6.59684 35275 ft 458 kts 237°
2026-04-16 11:05 46.69966 6.52369 35271 ft 471 kts 237°
2026-04-16 11:05 46.65778 6.44880 35275 ft 481 kts 236°
2026-04-16 11:06 46.61520 6.37322 35262 ft 484 kts 236°
2026-04-16 11:06 46.57250 6.29762 35261 ft 484 kts 236°
2026-04-16 11:07 46.52985 6.22206 35262 ft 483 kts 236°
2026-04-16 11:07 46.48727 6.14661 35250 ft 483 kts 236°
2026-04-16 11:08 46.44463 6.07137 35249 ft 483 kts 236°
2026-04-16 11:08 46.40192 5.99637 35252 ft 482 kts 236°
2026-04-16 11:09 46.35929 5.92165 35265 ft 481 kts 236°
2026-04-16 11:09 46.31663 5.84714 35267 ft 480 kts 236°
2026-04-16 11:10 46.27396 5.77284 35265 ft 480 kts 236°
2026-04-16 11:10 46.23162 5.69918 35260 ft 479 kts 236°
2026-04-16 11:11 46.18870 5.62473 35247 ft 479 kts 236°
2026-04-16 11:11 46.14629 5.55057 35235 ft 477 kts 239°
2026-04-16 11:12 46.10867 5.47240 35244 ft 474 kts 241°
2026-04-16 11:12 46.07127 5.39433 35252 ft 473 kts 241°
2026-04-16 11:13 46.03377 5.31651 35259 ft 473 kts 241°
2026-04-16 11:13 46.01497 5.27755 35423 ft 474 kts 241°
2026-04-16 11:13 45.99616 5.23863 35659 ft 474 kts 241°
2026-04-16 11:13 45.97734 5.19974 35896 ft 474 kts 240°
2026-04-16 11:14 45.95852 5.16093 36123 ft 473 kts 240°
2026-04-16 11:14 45.93973 5.12221 36347 ft 472 kts 240°
2026-04-16 11:14 45.92098 5.08359 36597 ft 471 kts 240°
2026-04-16 11:14 45.90226 5.04505 36823 ft 470 kts 240°
2026-04-16 11:15 45.88355 5.00660 37068 ft 469 kts 240°
2026-04-16 11:15 45.86483 4.96824 37238 ft 469 kts 240°
2026-04-16 11:15 45.84607 4.92993 37276 ft 470 kts 240°
2026-04-16 11:16 45.80852 4.85332 37274 ft 469 kts 240°
2026-04-16 11:16 45.77106 4.77689 37273 ft 468 kts 240°
2026-04-16 11:17 45.73356 4.70058 37242 ft 468 kts 240°
2026-04-16 11:17 45.69609 4.62476 37261 ft 466 kts 240°
2026-04-16 11:18 45.65870 4.54907 37261 ft 466 kts 240°
2026-04-16 11:18 45.62128 4.47351 37268 ft 466 kts 240°
2026-04-16 11:19 45.58376 4.39805 37273 ft 466 kts 240°
2026-04-16 11:19 45.54618 4.32277 37286 ft 466 kts 240°
2026-04-16 11:20 45.50854 4.24758 37278 ft 465 kts 240°
2026-04-16 11:20 45.47101 4.17269 37287 ft 464 kts 240°
2026-04-16 11:21 45.43348 4.09792 37284 ft 463 kts 240°
2026-04-16 11:21 45.39594 4.02346 37281 ft 463 kts 239°
2026-04-16 11:22 45.35832 3.94914 37273 ft 462 kts 239°
2026-04-16 11:22 45.32104 3.87550 37275 ft 462 kts 239°
2026-04-16 11:23 45.28393 3.80247 37261 ft 445 kts 238°
2026-04-16 11:23 45.24794 3.73192 37251 ft 439 kts 238°
2026-04-16 11:24 45.21295 3.66117 37254 ft 437 kts 239°
2026-04-16 11:24 45.17837 3.59020 37255 ft 437 kts 239°
2026-04-16 11:25 45.14368 3.51942 37255 ft 437 kts 239°
2026-04-16 11:25 45.10875 3.44883 37244 ft 438 kts 238°
2026-04-16 11:26 45.07933 3.38976 37238 ft 438 kts 238°
2026-04-16 11:26 45.04413 3.31936 37243 ft 439 kts 238°
2026-04-16 11:27 45.00887 3.24886 37245 ft 439 kts 238°
2026-04-16 11:27 44.97372 3.17838 37247 ft 439 kts 238°
2026-04-16 11:28 44.93852 3.10798 37239 ft 439 kts 238°
2026-04-16 11:28 44.90318 3.03770 37233 ft 439 kts 238°
2026-04-16 11:29 44.86772 2.96756 37247 ft 439 kts 238°
2026-04-16 11:29 44.83263 2.89722 37253 ft 438 kts 240°
2026-04-16 11:30 44.79981 2.82574 37248 ft 437 kts 241°
2026-04-16 11:30 44.76712 2.75297 37256 ft 437 kts 241°
2026-04-16 11:31 44.73418 2.68109 37256 ft 437 kts 240°
2026-04-16 11:31 44.70096 2.60954 37269 ft 437 kts 240°
2026-04-16 11:32 44.66771 2.53827 37265 ft 436 kts 240°
2026-04-16 11:32 44.63454 2.46712 37267 ft 435 kts 240°
2026-04-16 11:33 44.60139 2.39606 37269 ft 435 kts 240°
2026-04-16 11:33 44.56820 2.32514 37253 ft 435 kts 240°
2026-04-16 11:34 44.53488 2.25427 37255 ft 435 kts 240°
2026-04-16 11:34 44.50158 2.18352 37265 ft 435 kts 240°
2026-04-16 11:35 44.46826 2.11295 37257 ft 434 kts 240°
2026-04-16 11:35 44.43495 2.04245 37253 ft 434 kts 240°
2026-04-16 11:36 44.40162 1.97207 37241 ft 434 kts 239°
2026-04-16 11:36 44.36820 1.90185 37237 ft 434 kts 239°
2026-04-16 11:37 44.33498 1.83208 37238 ft 434 kts 239°
2026-04-16 11:37 44.30151 1.76199 37242 ft 434 kts 239°
2026-04-16 11:38 44.26845 1.69167 37245 ft 433 kts 240°
2026-04-16 11:38 44.23619 1.62079 37244 ft 433 kts 241°
2026-04-16 11:39 44.20396 1.55005 37234 ft 433 kts 240°
2026-04-16 11:39 44.17143 1.47945 37230 ft 433 kts 240°
2026-04-16 11:40 44.13878 1.40906 37240 ft 432 kts 240°
2026-04-16 11:40 44.10615 1.33873 37241 ft 432 kts 240°
2026-04-16 11:41 44.07352 1.26852 37240 ft 432 kts 240°
2026-04-16 11:41 44.04081 1.19839 37242 ft 432 kts 240°
2026-04-16 11:42 44.00803 1.12837 37226 ft 432 kts 239°
2026-04-16 11:42 43.97526 1.05841 37236 ft 432 kts 239°
2026-04-16 11:43 43.94250 0.98845 37241 ft 432 kts 239°
2026-04-16 11:43 43.90963 0.91868 37243 ft 432 kts 239°
2026-04-16 11:44 43.87226 0.85341 37247 ft 436 kts 225°
2026-04-16 11:44 43.82690 0.79733 37235 ft 437 kts 225°
2026-04-16 11:45 43.78152 0.74122 37238 ft 437 kts 224°
2026-04-16 11:45 43.73615 0.68523 37248 ft 437 kts 224°
2026-04-16 11:46 43.69072 0.62935 37256 ft 437 kts 224°
2026-04-16 11:46 43.64530 0.57360 37259 ft 437 kts 224°
2026-04-16 11:47 43.59986 0.51798 37243 ft 437 kts 224°
2026-04-16 11:47 43.55442 0.46231 37246 ft 437 kts 224°
2026-04-16 11:48 43.50890 0.40676 37246 ft 437 kts 224°
2026-04-16 11:48 43.46324 0.35136 37252 ft 437 kts 224°
2026-04-16 11:49 43.41766 0.29605 37245 ft 437 kts 224°
2026-04-16 11:49 43.37209 0.24072 37244 ft 437 kts 224°
2026-04-16 11:50 43.32639 0.18559 37243 ft 437 kts 224°
2026-04-16 11:50 43.28063 0.13056 37246 ft 437 kts 224°
2026-04-16 11:51 43.23491 0.07549 37245 ft 437 kts 224°
2026-04-16 11:51 43.18916 0.02049 37236 ft 438 kts 224°
2026-04-16 11:52 43.14339 -0.03452 37209 ft 438 kts 224°
2026-04-16 11:52 43.09757 -0.08929 37221 ft 437 kts 224°
2026-04-16 11:53 43.05176 -0.14398 37235 ft 437 kts 224°
2026-04-16 11:53 43.00593 -0.19852 37233 ft 437 kts 224°
2026-04-16 11:54 42.96012 -0.25300 37235 ft 437 kts 223°
2026-04-16 11:54 42.91430 -0.30746 37242 ft 437 kts 223°
2026-04-16 11:55 42.86839 -0.36178 37239 ft 437 kts 223°
2026-04-16 11:55 42.82222 -0.41579 37234 ft 438 kts 219°
2026-04-16 11:56 42.76873 -0.45591 37233 ft 443 kts 203°
2026-04-16 11:56 42.71113 -0.48605 37226 ft 444 kts 204°
2026-04-16 11:57 42.65358 -0.51629 37225 ft 444 kts 204°
2026-04-16 11:57 42.59599 -0.54656 37219 ft 444 kts 204°
2026-04-16 11:58 42.53838 -0.57680 37238 ft 444 kts 203°
2026-04-16 11:58 42.48078 -0.60690 37238 ft 444 kts 203°
2026-04-16 11:59 42.42316 -0.63703 37231 ft 444 kts 203°
2026-04-16 11:59 42.36550 -0.66708 37215 ft 444 kts 203°
2026-04-16 12:00 42.30790 -0.69716 37220 ft 444 kts 203°
2026-04-16 12:00 42.25018 -0.72708 37218 ft 444 kts 203°
2026-04-16 12:01 42.19247 -0.75686 37216 ft 444 kts 203°
2026-04-16 12:01 42.13476 -0.78662 37221 ft 444 kts 203°
2026-04-16 12:02 42.04821 -0.83115 37223 ft 443 kts 203°
2026-04-16 12:02 41.99060 -0.86082 37226 ft 443 kts 203°
2026-04-16 12:03 41.93292 -0.89043 37218 ft 444 kts 203°
2026-04-16 12:03 41.87527 -0.91997 37220 ft 444 kts 203°
2026-04-16 12:04 41.81754 -0.94950 37217 ft 444 kts 203°
2026-04-16 12:04 41.75981 -0.97896 37212 ft 444 kts 203°
2026-04-16 12:05 41.70202 -1.00836 37209 ft 445 kts 203°
2026-04-16 12:05 41.64581 -1.04221 37204 ft 441 kts 215°
2026-04-16 12:06 41.59533 -1.08851 37207 ft 440 kts 217°
2026-04-16 12:06 41.54483 -1.13490 37175 ft 441 kts 217°
2026-04-16 12:07 41.50279 -1.17331 37188 ft 441 kts 217°
2026-04-16 12:07 41.45224 -1.21950 37212 ft 440 kts 217°
2026-04-16 12:08 41.40175 -1.26557 37215 ft 440 kts 217°
2026-04-16 12:08 41.35129 -1.31163 37216 ft 440 kts 217°
2026-04-16 12:09 41.30083 -1.35762 37212 ft 440 kts 217°
2026-04-16 12:09 41.25033 -1.40351 37211 ft 440 kts 217°
2026-04-16 12:10 41.19977 -1.44930 37210 ft 440 kts 217°
2026-04-16 12:10 41.14921 -1.49515 37212 ft 440 kts 217°
2026-04-16 12:11 41.09870 -1.54086 37205 ft 439 kts 217°
2026-04-16 12:11 41.04815 -1.58644 37213 ft 439 kts 217°
2026-04-16 12:12 40.99762 -1.63189 37224 ft 439 kts 217°
2026-04-16 12:12 40.94706 -1.67732 37233 ft 439 kts 217°
2026-04-16 12:13 40.89648 -1.72265 37232 ft 439 kts 217°
2026-04-16 12:13 40.84596 -1.76786 37223 ft 439 kts 217°
2026-04-16 12:14 40.79540 -1.81303 37229 ft 439 kts 217°
2026-04-16 12:14 40.74483 -1.85805 37229 ft 438 kts 217°
2026-04-16 12:15 40.69458 -1.90271 37234 ft 439 kts 217°
2026-04-16 12:15 40.64407 -1.94771 37234 ft 438 kts 218°
2026-04-16 12:16 40.59353 -1.99262 37235 ft 438 kts 217°
2026-04-16 12:16 40.54297 -2.03730 37248 ft 438 kts 217°
2026-04-16 12:17 40.49237 -2.08189 37249 ft 438 kts 217°
2026-04-16 12:17 40.44175 -2.12637 37241 ft 437 kts 218°
2026-04-16 12:18 40.39119 -2.17084 37232 ft 437 kts 218°
2026-04-16 12:18 40.34065 -2.21542 37240 ft 438 kts 218°
2026-04-16 12:19 40.29007 -2.25983 37238 ft 438 kts 218°
2026-04-16 12:19 40.23941 -2.30410 37215 ft 438 kts 218°
2026-04-16 12:20 40.18872 -2.34833 37215 ft 438 kts 218°
2026-04-16 12:20 40.13804 -2.39252 37216 ft 438 kts 218°
2026-04-16 12:21 40.08732 -2.43668 37234 ft 438 kts 218°
2026-04-16 12:21 40.03653 -2.48068 37233 ft 438 kts 218°
2026-04-16 12:22 39.98571 -2.52464 37234 ft 438 kts 218°
2026-04-16 12:22 39.93494 -2.56863 37237 ft 438 kts 218°
2026-04-16 12:23 39.88416 -2.61260 37236 ft 438 kts 218°
2026-04-16 12:23 39.83329 -2.65635 37238 ft 438 kts 218°
2026-04-16 12:24 39.78241 -2.70004 37231 ft 438 kts 218°
2026-04-16 12:24 39.73158 -2.74374 37225 ft 438 kts 218°
2026-04-16 12:25 39.68075 -2.78738 37226 ft 438 kts 219°
2026-04-16 12:25 39.63000 -2.83102 37227 ft 438 kts 218°
2026-04-16 12:26 39.57915 -2.87458 37236 ft 438 kts 218°
2026-04-16 12:26 39.52826 -2.91795 37217 ft 438 kts 218°
2026-04-16 12:27 39.47768 -2.96093 37222 ft 438 kts 218°
2026-04-16 12:27 39.42679 -3.00418 37228 ft 438 kts 218°
2026-04-16 12:28 39.37252 -3.04076 37226 ft 446 kts 206°
2026-04-16 12:28 39.31441 -3.06895 37217 ft 446 kts 205°
2026-04-16 12:29 39.25638 -3.09708 37216 ft 445 kts 206°
2026-04-16 12:29 39.19845 -3.12528 37221 ft 445 kts 206°
2026-04-16 12:30 39.14056 -3.15341 37225 ft 445 kts 206°
2026-04-16 12:30 39.08267 -3.18142 37223 ft 444 kts 205°
2026-04-16 12:31 39.02478 -3.20938 37213 ft 444 kts 205°
2026-04-16 12:31 38.96687 -3.23731 37214 ft 444 kts 205°
2026-04-16 12:32 38.90899 -3.26523 37214 ft 444 kts 205°
2026-04-16 12:32 38.85110 -3.29307 37215 ft 444 kts 205°
2026-04-16 12:33 38.79322 -3.32085 37206 ft 444 kts 205°
2026-04-16 12:33 38.73528 -3.34853 37209 ft 444 kts 205°
2026-04-16 12:34 38.67728 -3.37611 37205 ft 444 kts 205°
2026-04-16 12:34 38.61932 -3.40374 37207 ft 444 kts 205°
2026-04-16 12:35 38.56140 -3.43138 37201 ft 444 kts 205°
2026-04-16 12:35 38.50347 -3.45892 37206 ft 444 kts 205°
2026-04-16 12:36 38.44562 -3.48636 37215 ft 443 kts 205°
2026-04-16 12:36 38.38787 -3.51376 37206 ft 443 kts 205°
2026-04-16 12:37 38.33014 -3.54107 37206 ft 443 kts 205°
2026-04-16 12:37 38.27242 -3.56836 37202 ft 442 kts 205°
2026-04-16 12:38 38.21470 -3.59549 37196 ft 442 kts 205°
2026-04-16 12:38 38.15697 -3.62259 37194 ft 442 kts 205°
2026-04-16 12:39 38.10024 -3.65227 37187 ft 440 kts 208°
2026-04-16 12:39 38.04473 -3.68486 37190 ft 439 kts 209°
2026-04-16 12:40 37.98924 -3.71736 37186 ft 440 kts 208°
2026-04-16 12:40 37.93332 -3.74901 37188 ft 440 kts 208°
2026-04-16 12:41 37.87729 -3.78027 37181 ft 440 kts 207°
2026-04-16 12:41 37.82134 -3.81166 37188 ft 440 kts 208°
2026-04-16 12:42 37.76543 -3.84312 37183 ft 439 kts 207°
2026-04-16 12:42 37.70963 -3.87449 37194 ft 439 kts 207°
2026-04-16 12:43 37.65390 -3.90573 37196 ft 438 kts 207°
2026-04-16 12:43 37.59811 -3.93685 37192 ft 438 kts 207°
2026-04-16 12:44 37.54239 -3.96791 37191 ft 438 kts 207°
2026-04-16 12:44 37.48667 -3.99894 37192 ft 438 kts 207°
2026-04-16 12:45 37.43097 -4.02996 37197 ft 438 kts 207°
2026-04-16 12:45 37.37526 -4.06090 37192 ft 437 kts 207°
2026-04-16 12:46 37.31957 -4.09169 37198 ft 437 kts 207°
2026-04-16 12:46 37.26391 -4.12250 37199 ft 437 kts 207°
2026-04-16 12:47 37.20826 -4.15324 37200 ft 437 kts 207°
2026-04-16 12:47 37.15261 -4.18390 37197 ft 437 kts 206°
2026-04-16 12:48 37.09696 -4.21458 37200 ft 437 kts 206°
2026-04-16 12:48 37.04138 -4.24525 37201 ft 437 kts 206°
2026-04-16 12:49 36.98576 -4.27583 37199 ft 437 kts 206°
2026-04-16 12:49 36.93051 -4.30611 37201 ft 436 kts 206°
2026-04-16 12:50 36.87486 -4.33657 37196 ft 436 kts 206°
2026-04-16 12:50 36.81932 -4.36722 37193 ft 436 kts 209°
2026-04-16 12:51 36.76788 -4.40648 37215 ft 433 kts 215°
2026-04-16 12:51 36.71706 -4.44686 37203 ft 433 kts 215°
2026-04-16 12:52 36.66625 -4.48727 37195 ft 433 kts 215°
2026-04-16 12:52 36.61542 -4.52764 37194 ft 433 kts 214°
2026-04-16 12:53 36.57315 -4.56109 37191 ft 433 kts 214°
2026-04-16 12:53 36.52224 -4.60124 37195 ft 433 kts 214°
2026-04-16 12:54 36.47137 -4.64143 37191 ft 433 kts 214°
2026-04-16 12:54 36.42053 -4.68150 37196 ft 433 kts 214°
2026-04-16 12:55 36.36966 -4.72151 37199 ft 433 kts 214°
2026-04-16 12:55 36.31861 -4.76171 37197 ft 433 kts 214°
2026-04-16 12:56 36.26771 -4.80169 37197 ft 433 kts 214°
2026-04-16 12:56 36.21685 -4.84160 37188 ft 433 kts 214°
2026-04-16 12:57 36.16587 -4.88138 37187 ft 433 kts 214°
2026-04-16 12:57 36.11495 -4.92124 37187 ft 433 kts 214°
2026-04-16 12:58 36.06425 -4.96140 37189 ft 433 kts 213°
2026-04-16 12:58 36.01359 -5.00163 37190 ft 433 kts 213°
2026-04-16 12:59 35.96317 -5.04143 37189 ft 433 kts 213°
2026-04-16 13:00 35.88672 -5.10166 37193 ft 433 kts 213°
2026-04-16 13:00 35.83598 -5.14158 37186 ft 433 kts 214°
2026-04-16 13:01 35.78673 -5.18408 37193 ft 432 kts 218°
2026-04-16 13:01 35.73917 -5.22927 37180 ft 432 kts 219°
2026-04-16 13:02 35.69157 -5.27445 37175 ft 432 kts 218°
2026-04-16 13:02 35.64350 -5.31885 37170 ft 432 kts 217°
2026-04-16 13:03 35.59554 -5.36254 37177 ft 432 kts 217°
2026-04-16 13:03 35.54728 -5.40655 37175 ft 432 kts 217°
2026-04-16 13:04 35.49918 -5.45062 37170 ft 431 kts 217°
2026-04-16 13:04 35.45109 -5.49461 37175 ft 431 kts 217°
2026-04-16 13:05 35.40294 -5.53850 37157 ft 431 kts 217°
2026-04-16 13:05 35.35477 -5.58231 37164 ft 431 kts 217°
2026-04-16 13:06 35.30662 -5.62620 37141 ft 432 kts 217°
2026-04-16 13:06 35.25842 -5.67009 37130 ft 432 kts 217°
2026-04-16 13:07 35.21011 -5.71390 37144 ft 432 kts 216°
2026-04-16 13:07 35.16173 -5.75762 37143 ft 432 kts 216°
2026-04-16 13:08 35.11335 -5.80131 37137 ft 432 kts 216°
2026-04-16 13:08 35.06499 -5.84506 37127 ft 432 kts 216°
2026-04-16 13:09 35.01661 -5.88869 37134 ft 433 kts 216°
2026-04-16 13:09 34.96822 -5.93231 37133 ft 433 kts 216°
2026-04-16 13:10 34.91976 -5.97583 37130 ft 433 kts 216°
2026-04-16 13:10 34.87127 -6.01927 37123 ft 433 kts 216°
2026-04-16 13:11 34.82273 -6.06266 37116 ft 433 kts 216°
2026-04-16 13:11 34.77422 -6.10603 37121 ft 433 kts 216°
2026-04-16 13:12 34.72568 -6.14942 37114 ft 433 kts 215°
2026-04-16 13:12 34.67710 -6.19264 37115 ft 433 kts 215°
2026-04-16 13:13 34.62850 -6.23588 37112 ft 433 kts 216°
2026-04-16 13:13 34.57995 -6.27912 37112 ft 433 kts 216°
2026-04-16 13:14 34.53136 -6.32230 37109 ft 433 kts 215°
2026-04-16 13:14 34.48272 -6.36539 37100 ft 433 kts 215°
2026-04-16 13:15 34.43408 -6.40843 37114 ft 433 kts 215°
2026-04-16 13:15 34.38543 -6.45141 37098 ft 433 kts 215°
2026-04-16 13:16 34.33678 -6.49431 37113 ft 433 kts 215°
2026-04-16 13:16 34.28812 -6.53721 37107 ft 433 kts 215°
2026-04-16 13:17 34.23946 -6.58010 37098 ft 433 kts 215°
2026-04-16 13:17 34.19077 -6.62293 37105 ft 433 kts 215°
2026-04-16 13:18 34.14203 -6.66571 37102 ft 433 kts 215°
2026-04-16 13:18 34.09327 -6.70840 37083 ft 433 kts 214°
2026-04-16 13:19 34.04445 -6.75105 37085 ft 433 kts 214°
2026-04-16 13:19 33.99504 -6.79252 37090 ft 433 kts 213°
2026-04-16 13:20 33.94505 -6.83301 37091 ft 433 kts 213°
2026-04-16 13:20 33.89514 -6.87361 37094 ft 433 kts 213°
2026-04-16 13:21 33.84536 -6.91441 37096 ft 433 kts 213°
2026-04-16 13:21 33.79555 -6.95521 37098 ft 433 kts 213°
2026-04-16 13:22 33.74573 -6.99595 37104 ft 433 kts 213°
2026-04-16 13:22 33.69591 -7.03667 37100 ft 433 kts 213°
2026-04-16 13:23 33.64604 -7.07733 37098 ft 433 kts 213°
2026-04-16 13:23 33.59613 -7.11784 37096 ft 433 kts 213°
2026-04-16 13:24 33.54629 -7.15840 37095 ft 433 kts 213°
2026-04-16 13:24 33.49641 -7.19891 37095 ft 433 kts 213°
2026-04-16 13:25 33.44649 -7.23933 37104 ft 433 kts 213°
2026-04-16 13:25 33.39653 -7.27968 37102 ft 433 kts 213°
2026-04-16 13:26 33.34658 -7.32006 37102 ft 433 kts 213°
2026-04-16 13:26 33.29663 -7.36039 37102 ft 433 kts 213°
2026-04-16 13:27 33.24669 -7.40076 37100 ft 433 kts 213°
2026-04-16 13:27 33.19671 -7.44100 37100 ft 433 kts 213°
2026-04-16 13:28 33.14664 -7.48110 37100 ft 433 kts 213°
2026-04-16 13:28 33.09675 -7.52053 37098 ft 433 kts 211°
2026-04-16 13:28 33.07104 -7.53934 36951 ft 434 kts 210°
2026-04-16 13:29 33.04502 -7.55748 36695 ft 433 kts 209°
2026-04-16 13:29 33.01886 -7.57530 36437 ft 433 kts 208°
2026-04-16 13:29 32.99267 -7.59310 35844 ft 435 kts 208°
2026-04-16 13:29 32.96636 -7.61116 35058 ft 438 kts 209°
2026-04-16 13:30 32.93992 -7.62953 34215 ft 442 kts 209°
2026-04-16 13:30 32.91328 -7.64824 33275 ft 446 kts 209°
2026-04-16 13:30 32.88666 -7.66704 32691 ft 442 kts 209°
2026-04-16 13:30 32.86036 -7.68563 32097 ft 438 kts 209°
2026-04-16 13:31 32.83427 -7.70404 31486 ft 434 kts 209°
2026-04-16 13:31 32.80835 -7.72228 30885 ft 432 kts 209°
2026-04-16 13:31 32.78257 -7.74034 30292 ft 429 kts 208°
2026-04-16 13:31 32.75691 -7.75828 29644 ft 427 kts 208°
2026-04-16 13:32 32.73148 -7.77605 29072 ft 422 kts 209°
2026-04-16 13:32 32.70628 -7.79367 28502 ft 418 kts 209°
2026-04-16 13:32 32.68135 -7.81104 27935 ft 414 kts 209°
2026-04-16 13:32 32.65663 -7.82823 27377 ft 410 kts 209°
2026-04-16 13:33 32.63214 -7.84527 26835 ft 406 kts 210°
2026-04-16 13:33 32.60788 -7.86216 26297 ft 403 kts 210°
2026-04-16 13:33 32.58383 -7.87892 25786 ft 399 kts 210°
2026-04-16 13:33 32.56001 -7.89549 25276 ft 395 kts 210°
2026-04-16 13:34 32.53641 -7.91191 24784 ft 391 kts 210°
2026-04-16 13:34 32.51302 -7.92817 24296 ft 388 kts 210°
2026-04-16 13:34 32.48982 -7.94429 23819 ft 385 kts 210°
2026-04-16 13:34 32.46682 -7.96026 23290 ft 382 kts 211°
2026-04-16 13:35 32.44403 -7.97610 22822 ft 377 kts 211°
2026-04-16 13:35 32.42152 -7.99174 22350 ft 374 kts 211°
2026-04-16 13:35 32.39920 -8.00722 21886 ft 370 kts 211°
2026-04-16 13:35 32.37705 -8.02256 21414 ft 367 kts 211°
2026-04-16 13:36 32.35506 -8.03776 20946 ft 365 kts 211°
2026-04-16 13:36 32.33321 -8.05287 20473 ft 363 kts 211°
2026-04-16 13:36 32.31849 -8.06306 20159 ft 362 kts 211°
2026-04-16 13:36 32.29676 -8.07809 19670 ft 361 kts 211°
2026-04-16 13:37 32.27510 -8.09305 19194 ft 360 kts 211°
2026-04-16 13:37 32.25349 -8.10795 18712 ft 360 kts 211°
2026-04-16 13:37 32.23187 -8.12284 18219 ft 359 kts 211°
2026-04-16 13:37 32.21032 -8.13770 17720 ft 358 kts 211°
2026-04-16 13:38 32.18888 -8.15246 17248 ft 356 kts 211°
2026-04-16 13:38 32.16757 -8.16716 16790 ft 353 kts 211°
2026-04-16 13:38 32.14640 -8.18179 16324 ft 352 kts 211°
2026-04-16 13:38 32.12535 -8.19632 15857 ft 350 kts 211°
2026-04-16 13:39 32.10439 -8.21074 15414 ft 348 kts 211°
2026-04-16 13:39 32.08347 -8.22505 14957 ft 347 kts 211°
2026-04-16 13:39 32.06260 -8.23928 14499 ft 346 kts 211°
2026-04-16 13:39 32.04178 -8.25345 14041 ft 345 kts 210°
2026-04-16 13:40 32.02099 -8.26763 13546 ft 345 kts 211°
2026-04-16 13:40 32.00029 -8.28175 13072 ft 343 kts 211°
2026-04-16 13:40 31.97976 -8.29578 12607 ft 340 kts 211°
2026-04-16 13:40 31.95936 -8.30974 12139 ft 338 kts 211°
2026-04-16 13:41 31.93907 -8.32361 11582 ft 338 kts 212°
2026-04-16 13:41 31.91871 -8.33748 10779 ft 335 kts 212°
2026-04-16 13:41 31.89925 -8.35069 10599 ft 310 kts 212°
2026-04-16 13:41 31.88149 -8.36270 10478 ft 288 kts 212°
2026-04-16 13:42 31.86476 -8.37401 10357 ft 267 kts 212°
2026-04-16 13:42 31.84903 -8.38467 10054 ft 257 kts 213°
2026-04-16 13:42 31.83367 -8.39478 9830 ft 251 kts 207°
2026-04-16 13:42 31.81765 -8.40306 9680 ft 253 kts 206°
2026-04-16 13:43 31.80156 -8.41137 9395 ft 252 kts 206°
2026-04-16 13:43 31.78547 -8.41967 9066 ft 253 kts 206°
2026-04-16 13:43 31.76938 -8.42800 8723 ft 252 kts 206°
2026-04-16 13:43 31.75333 -8.43629 8377 ft 252 kts 206°
2026-04-16 13:44 31.73734 -8.44453 8036 ft 250 kts 206°
2026-04-16 13:44 31.72140 -8.45275 7689 ft 250 kts 206°
2026-04-16 13:44 31.70553 -8.46095 7348 ft 249 kts 206°
2026-04-16 13:44 31.68971 -8.46911 7013 ft 248 kts 206°
2026-04-16 13:45 31.67394 -8.47721 6673 ft 247 kts 206°
2026-04-16 13:45 31.65823 -8.48524 6321 ft 246 kts 206°
2026-04-16 13:45 31.64220 -8.49268 5862 ft 251 kts 194°
2026-04-16 13:45 31.62545 -8.49073 5673 ft 244 kts 153°
2026-04-16 13:46 31.61355 -8.47702 5552 ft 241 kts 114°
2026-04-16 13:46 31.61108 -8.45837 5406 ft 232 kts 86°
2026-04-16 13:46 31.61176 -8.43958 5237 ft 230 kts 86°
2026-04-16 13:46 31.61242 -8.42090 5077 ft 229 kts 86°
2026-04-16 13:47 31.61306 -8.40225 4902 ft 229 kts 87°
2026-04-16 13:47 31.61363 -8.38363 4742 ft 228 kts 87°
2026-04-16 13:47 31.61416 -8.36512 4569 ft 226 kts 87°
2026-04-16 13:47 31.61469 -8.34672 4412 ft 225 kts 87°
2026-04-16 13:48 31.61521 -8.32837 4239 ft 226 kts 86°
2026-04-16 13:48 31.61573 -8.30990 4091 ft 226 kts 86°
2026-04-16 13:48 31.61623 -8.29156 3921 ft 224 kts 86°
2026-04-16 13:48 31.61672 -8.27334 3771 ft 225 kts 85°
2026-04-16 13:49 31.61722 -8.25505 3609 ft 226 kts 86°
2026-04-16 13:49 31.61771 -8.23666 3517 ft 226 kts 86°
2026-04-16 13:49 31.61820 -8.21825 3428 ft 226 kts 87°
2026-04-16 13:49 31.61868 -8.19988 3329 ft 227 kts 86°
2026-04-16 13:50 31.61892 -8.18145 3245 ft 225 kts 89°
2026-04-16 13:50 31.61794 -8.16333 3209 ft 214 kts 92°
2026-04-16 13:50 31.61653 -8.14644 3026 ft 204 kts 94°
2026-04-16 13:50 31.61510 -8.13014 2794 ft 197 kts 94°
2026-04-16 13:51 31.61374 -8.11462 2542 ft 183 kts 94°
2026-04-16 13:51 31.61249 -8.10035 2355 ft 171 kts 92°
2026-04-16 13:51 31.61130 -8.08668 2129 ft 164 kts 94°
2026-04-16 13:51 31.61015 -8.07353 1921 ft 163 kts 94°
2026-04-16 13:52 31.60902 -8.06052 1718 ft 159 kts 91°
2026-04-16 13:52 31.60786 -8.04764 1535 ft 157 kts 94°
2026-04-16 13:52 31.60692 -8.03630 1540 ft 110 kts 95°
2026-04-16 13:52 31.60632 -8.02946 1546 ft 62 kts 96°
2026-04-16 13:53 31.60599 -8.02656 1550 ft 18 kts 121°
2026-04-16 13:53 31.60500 -8.02643 1549 ft 11 kts 186°
2026-04-16 13:53 31.60475 -8.02646 1549 ft 0 kts 186°
2026-04-16 13:54 31.60474 -8.02646 1549 ft 0 kts 186°
2026-04-16 13:54 31.60453 -8.02648 1549 ft 4 kts 182°
2026-04-16 13:54 31.60428 -8.02621 1549 ft 5 kts 107°
2026-04-16 13:54 31.60423 -8.02565 1549 ft 8 kts 96°
2026-04-16 13:55 31.60418 -8.02499 1549 ft 8 kts 96°
2026-04-16 13:55 31.60412 -8.02440 1549 ft 7 kts 96°
2026-04-16 13:55 31.60408 -8.02387 1549 ft 6 kts 95°
2026-04-16 13:55 31.60403 -8.02334 1549 ft 6 kts 95°
2026-04-16 13:56 31.60398 -8.02281 1549 ft 7 kts 96°
2026-04-16 13:56 31.60394 -8.02232 1549 ft 6 kts 98°
2026-04-16 13:56 31.60356 -8.02196 1549 ft 7 kts 181°
2026-04-16 13:56 31.60310 -8.02199 1549 ft 6 kts 184°
2026-04-16 13:57 31.60271 -8.02204 1549 ft 5 kts 186°
2026-04-16 13:57 31.60239 -8.02208 1549 ft 4 kts 186°
2026-04-16 13:57 31.60209 -8.02209 1549 ft 4 kts 180°
2026-04-16 13:58 31.60197 -8.02243 1549 ft 3 kts 272°
2026-04-16 13:58 31.60200 -8.02272 1549 ft 3 kts 276°
2026-04-16 13:58 31.60202 -8.02292 1549 ft 2 kts 275°
2026-04-16 13:58 31.60202 -8.02303 1549 ft 1 kts 275°
2026-04-16 13:59 31.60203 -8.02304 1549 ft 0 kts 275°